Flag for France Weather past 2 weeks in Nîmes, France

Now
70 °F

Clear.


Feels Like: 70 °F
Forecast: 59 / 83 °F
Wind: 21 mph from North

Location: Nimes / Garons

Current Time: Sep 2, 2014 at 11:29:10 PM

Latest Report: Sep 2, 2014 at 11:00 PM


Visibility: N/A

Pressure: 29.92 "Hg

Humidity: 43%

Dew point: 46 °F

Location of NîmesLocation

Historic Weather in Nîmes — Graph

°F

Nîmes temperature yesterday

Maximum temperature yesterday: 82 °F (at 4:30 PM)
Minimum temperature yesterday: 64 °F (at 5:30 AM)
Average temperature yesterday: 72 °F

Past Weeks' High & Low Weather Summary

 TemperatureHumidityPressure
High91 °F (Aug 28, 3:30 PM)83% (Aug 18, 10:30 PM)30.09 "Hg (Aug 18, 10:30 PM)
Low59 °F (Aug 21, 5:30 AM)21% (Aug 27, 4:30 PM)29.86 "Hg (Aug 18, 10:30 PM)
Average73 °F47%29.98 "Hg
* Reported Aug 18 10:00 PM — Sep 2 10:00 PM, Nîmes, Weather by CustomWeather, © 2014

Note: Actual official high and low records may vary slightly from our data, if they occured in-between our weather recording intervals... More about our weather records

Advertising

Nîmes weather history for previous 24 hours

 ConditionsComfort  
Time TempWeatherWind HumidityBarometerVisibility
10:00 PM
Sep 2
72 °FClear.20 mph41%29.92 "HgN/A
9:30 PM72 °FClear.16 mph41%29.92 "HgN/A
9:00 PM72 °FClear.15 mph38%29.89 "HgN/A
8:30 PM73 °FClear.18 mph36%29.89 "HgN/A
8:00 PM75 °FClear.17 mph34%29.89 "HgN/A
7:30 PM77 °FClear.17 mph32%29.89 "HgN/A
7:00 PM79 °FClear.16 mph32%29.86 "HgN/A
6:30 PM79 °FClear.17 mph32%29.86 "HgN/A
6:00 PM81 °FClear.16 mph30%29.86 "HgN/A
5:30 PM81 °FClear.17 mph30%29.86 "HgN/A
5:00 PM82 °FClear.17 mph28%29.86 "HgN/A
4:30 PM82 °FClear.16 mph26%29.86 "HgN/A
4:00 PM84 °FClear.18 mph25%29.86 "HgN/A
3:30 PM84 °FClear.17 mph23%29.86 "HgN/A
3:00 PM84 °FClear.20 mph22%29.86 "HgN/A
2:30 PM84 °FClear.21 mph23%29.89 "HgN/A
2:00 PM82 °FClear.21 mph25%29.89 "HgN/A
1:30 PM81 °FClear.21 mph26%29.89 "HgN/A
1:00 PM81 °FClear.15 mph28%29.89 "HgN/A
12:30 PM79 °FClear.22 mph28%29.89 "HgN/A
12:00 PM79 °FClear.18 mph28%29.92 "HgN/A
11:30 AM77 °FClear.20 mph28%29.92 "HgN/A
11:00 AM75 °FClear.25 mph29%29.92 "HgN/A
10:30 AM73 °FClear.21 mph31%29.92 "HgN/A
10:00 AM72 °FClear.21 mph36%29.92 "HgN/A
9:30 AM70 °FClear.22 mph38%29.92 "HgN/A
9:00 AM68 °FClear.18 mph40%29.92 "HgN/A
8:30 AM68 °FClear.16 mph40%29.92 "HgN/A
8:00 AM64 °FClear.14 mph43%29.92 "HgN/A
7:30 AM64 °FClear.13 mph43%29.92 "HgN/A
7:00 AM63 °FClear.18 mph45%29.92 "HgN/A
6:30 AM64 °FClear.20 mph43%29.92 "HgN/A
6:00 AM64 °FClear.15 mph43%29.92 "HgN/A
5:30 AM64 °FClear.18 mph43%29.92 "HgN/A
5:00 AM64 °FClear.15 mph46%29.92 "HgN/A
4:30 AM64 °FClear.16 mph46%29.92 "HgN/A
4:00 AM64 °FClear.15 mph46%29.95 "HgN/A
3:30 AM64 °FClear.15 mph43%29.95 "HgN/A
3:00 AM64 °FClear.18 mph43%29.95 "HgN/A
2:30 AM66 °FClear.20 mph43%29.95 "HgN/A
2:00 AM66 °FClear.16 mph40%29.95 "HgN/A
1:30 AM66 °FClear.18 mph40%29.95 "HgN/A
1:00 AM66 °FClear.21 mph43%29.95 "HgN/A
12:30 AM68 °FClear.24 mph40%29.95 "HgN/A
12:00 AM68 °FClear.22 mph40%29.95 "HgN/A
11:30 PM
Sep 1
68 °FClear.16 mph40%29.95 "HgN/A
Weather by CustomWeather, © 2014

See weather overviewHow to use our weather pages